sat.trackr.live / text

‹ back to catalog

STARLINK-30478

NORAD 57911 · 2023-146W

PAYLOAD ACTIVE UNKNOWN

§ Identity

Operator
Country
US
Launch date
2023-09-20
Launch site
AFETR
Launch vehicle
Mass (kg)
RCS (m²)

Purposes: comms

External: N2YO · Heavens-Above · Gunter

§ Orbital elements

Epoch: 2026-09-20T09:04:49.492704Z

Period
94.27 min
Inclination
43.0030°
Eccentricity
0.0001078
Mean motion
15.27576703 rev/d
Perigee alt
482.3 km
Apogee alt
483.8 km
Semi-major
6,861.2 km
B*
3.1680e-6
RAAN
294.5039°
Arg perigee
263.2967°
Mean anomaly
96.7762°
Rev number
16,683

§ Raw data

STARLINK-304781 57911U 23146W   26263.37835061 -.00000175  00000+0  31680-5 0  99972 57911  43.0030 294.5039 0001078 263.2967  96.7762 15.27576703166832

JSON: /api/v1/satellites/57911 · /tle

For live sub-satellite position, see the globe view (requires WebGL).

§ Visibility from observer

Set your observer location to see the next 7 days of passes ≥ 10°. The values pass through the URL so the page stays shareable.

No JS? Fill the form by hand. The geolocation button needs JavaScript.